Lid_Strength_Index
15 15 15 15 14 14 14 15 16 17 16 13 13 11 12 12 12 13 14 13 12 12 11 11 11 11 10 10 10 9 9 9 9 9 8 8 8 8
15 15 15 14 14 14 14 14 14 16 17 14 14 13 13 13 13 13 14 13 13 12 12 11 11 11 11 10 10 10 10 9 9 9 9 9 9 8
15 15 15 15 15 14 14 14 14 15 17 16 14 13 14 14 14 14 14 15 14 13 12 12 11 11 11 11 11 11 11 10 10 10 10 10 10 9
15 15 15 15 15 14 14 15 15 15 16 17 15 14 14 14 14 15 15 14 15 14 13 13 13 13 13 12 12 12 12 12 12 12 11 11 10 10
15 15 15 15 15 15 15 15 15 15 15 16 16 14 14 14 16 15 15 15 15 14 14 14 13 13 14 13 13 13 14 13 13 12 12 11 11 10
15 15 15 15 15 16 16 16 15 15 15 15 15 16 16 15 16 17 18 17 17 16 15 15 15 15 15 14 14 14 14 13 12 12 12 11 11 11
15 15 15 15 16 16 16 16 16 15 15 16 17 17 17 17 18 18 19 18 18 17 18 19 19 18 18 16 16 15 13 12 12 11 11 11 10 10
15 15 15 15 15 15 15 14 14 15 16 16 17 18 18 18 18 19 19 21 22 17 20 20 18 19 18 17 13 12 11 11 11 10 10 10 10 10
15 15 16 15 15 15 15 13 14 14 14 16 17 18 18 18 18 19 20 20 21 19 19 21 18 18 16 15 13 12 11 10 10 10 10 10 10 10
15 15 16 16 15 15 15 15 15 15 15 15 16 16 17 16 17 18 18 19 19 18 16 22 17 18 17 15 11 10 9 8 8 8 8 9 9 9
15 15 15 15 14 14 15 16 16 16 15 14 14 14 14 15 15 17 20 21 22 19 16 17 17 17 16 16 13 9 8 8 7 7 8 8 8 9
15 15 15 15 14 13 15 17 18 17 16 17 18 17 17 17 15 16 18 20 20 20 15 17 16 16 20 15 14 13 12 8 7 7 8 7 8 11
15 15 15 14 14 14 14 17 16 15 18 19 19 18 17 17 17 16 15 16 18 18 14 13 16 16 16 17 16 13 12 12 12 11 8 8 8 8
15 14 14 15 15 15 16 15 15 18 19 20 19 19 18 18 17 16 16 15 14 15 14 13 15 15 16 17 18 14 13 11 12 13 12 10 8 8
15 15 16 16 16 16 17 16 18 19 20 21 20 19 18 17 16 16 15 15 15 14 13 13 13 13 13 15 16 15 15 14 12 11 11 11 12 12
16 16 16 16 16 16 18 18 19 19 20 21 20 18 17 17 17 16 17 17 17 17 14 12 12 12 13 13 13 15 14 15 12 12 12 12 11 11
19 18 18 18 19 19 19 19 19 19 20 19 19 19 18 18 18 17 17 18 19 18 17 15 13 12 12 12 14 13 13 14 12 13 13 13 11 11
19 20 20 20 20 20 20 21 20 20 20 20 20 19 19 19 19 19 19 19 19 18 18 16 15 16 16 13 8 13 14 15 13 12 13 15 13 12
21 20 21 21 21 21 21 21 21 20 22 21 20 20 20 20 20 20 20 19 20 19 18 17 17 17 20 20 14 8 16 15 14 14 13 14 14 13
21 22 22 22 22 22 21 21 21 21 21 20 20 21 21 21 22 22 21 21 21 21 20 18 17 17 18 20 19 15 9 14 15 15 15 13 12 9
23 22 22 22 22 22 22 22 22 22 22 22 23 23 23 22 22 22 21 22 21 21 22 20 17 14 15 15 18 16 13 9 10 14 15 16 16 16
23 23 23 23 23 22 22 23 22 22 22 21 22 22 22 22 23 23 22 23 22 22 21 19 17 16 16 18 19 18 16 14 11 9 9 11 16 19
24 23 23 23 22 22 23 23 22 22 21 22 22 22 23 24 23 23 23 23 23 23 22 21 19 17 18 18 18 18 17 17 16 16 15 10 11 10